Jacksonville Craig, FL

5:25 AM EDT on May 25, 2017 (GMT -0400)
Craig Municipal

Weather History for KCRG - January, 2014

Change the Weather History Date:

Monday, January 27, 2014

  Actual Average Record
Temperature  
Mean Temperature 62 °F -  
Max Temperature 75 °F 63 °F 75 °F (1999)
Min Temperature 50 °F 44 °F 28 °F (2000)
Degree Days  
Heating Degree Days 2    
Growing Degree Days 12 (Base 50)    
Moisture  
Dew Point 50 °F    
Average Humidity 69    
Maximum Humidity 86    
Minimum Humidity 43    
Precipitation  
Precipitation 0.00 in - - ()
Sea Level Pressure  
Sea Level Pressure 29.97 in    
Wind  
Wind Speed 3 mph (WSW)    
Max Wind Speed 14 mph    
Max Gust Speed -    
Visibility 10 miles    
Events      
Averages and records for this station are not official NWS values.
T = Trace of Precipitation, MM = Missing Value Source: NWS Daily Summary

Daily Weather History Graph

Daily Weather History Graph

Search for Another Location

Airport or City:

Trip Planner

Search our weather history database for the weather conditions in past years. The results will help you decide how hot, cold, wet, or windy it might be!

Date:

Astronomy

Jan. 27, 2014 Rise Set
Actual Time 7:19 AM EST 5:58 PM EST
Civil Twilight 6:54 AM EST 6:23 PM EST
Nautical Twilight 6:25 AM EST 6:52 PM EST
Astronomical Twilight 5:56 AM EST 7:21 PM EST
Moon 3:56 AM EST (1/27) 2:46 PM EST (1/27)
Length of Visible Light 11h 29m
Length of Day
10h 38m
Waning Crescent, 15% of the Moon is Illuminated
Jan 27
Waning Crescent
Jan 30
New
Feb 6
First Quarter
Feb 14
Full
Feb 22
Last Quarter

Hourly Weather History & Observations

Time (EST) Temp. Dew Point Humidity Pressure Visibility Wind Dir Wind Speed Gust Speed Precip Events Conditions
12:53 AM 50.0 °F 46.0 °F 86% 30.00 in 10.0 mi SSW 3.5 mph - N/A   Mostly Cloudy
1:53 AM 52.0 °F 48.0 °F 86% 29.99 in 10.0 mi Calm Calm - N/A   Overcast
2:53 AM 53.1 °F 48.9 °F 86% 29.99 in 10.0 mi Calm Calm - N/A   Overcast
3:53 AM 54.0 °F 48.9 °F 83% 29.99 in 10.0 mi Calm Calm - N/A   Overcast
4:53 AM 54.0 °F 48.0 °F 80% 29.98 in 10.0 mi Calm Calm - N/A   Overcast
5:34 AM 54.0 °F 48.9 °F 83% 29.99 in 10.0 mi Calm Calm - N/A   Overcast
5:53 AM 54.0 °F 48.9 °F 83% 29.99 in 10.0 mi Calm Calm - N/A   Overcast
6:53 AM 54.0 °F 48.9 °F 83% 30.01 in 10.0 mi Calm Calm - N/A   Overcast
7:53 AM 55.9 °F 48.9 °F 77% 30.02 in 10.0 mi Calm Calm - N/A   Overcast
8:53 AM 59.0 °F 51.1 °F 75% 30.01 in 10.0 mi South 4.6 mph - N/A   Clear
9:53 AM 63.0 °F 51.1 °F 65% 30.01 in 10.0 mi SSW 4.6 mph - N/A   Clear
10:53 AM 66.9 °F 51.1 °F 57% 30.01 in 10.0 mi WSW 5.8 mph - N/A   Clear
11:53 AM 69.1 °F 51.1 °F 53% 30.00 in 10.0 mi WSW 12.7 mph - N/A   Clear
12:53 PM 71.1 °F 52.0 °F 51% 29.96 in 10.0 mi SW 9.2 mph - N/A   Partly Cloudy
1:53 PM 73.0 °F 52.0 °F 48% 29.92 in 10.0 mi West 12.7 mph - N/A   Scattered Clouds
2:53 PM 75.0 °F 52.0 °F 44% 29.91 in 10.0 mi West 10.4 mph - N/A   Mostly Cloudy
3:53 PM 73.0 °F 51.1 °F 46% 29.91 in 10.0 mi West 13.8 mph - N/A   Partly Cloudy
4:53 PM 73.9 °F 50.0 °F 43% 29.91 in 10.0 mi West 9.2 mph - N/A   Clear
5:53 PM 72.0 °F 51.1 °F 48% 29.92 in 10.0 mi West 3.5 mph - N/A   Clear
6:53 PM 62.1 °F 52.0 °F 70% 29.94 in 10.0 mi Calm Calm - N/A   Clear
7:53 PM 59.0 °F 53.1 °F 81% 29.95 in 10.0 mi Calm Calm - N/A   Clear
8:53 PM 57.0 °F 51.1 °F 81% 29.97 in 10.0 mi Calm Calm - N/A   Clear
9:53 PM 63.0 °F 52.0 °F 67% 29.99 in 10.0 mi WSW 5.8 mph - N/A   Clear
10:53 PM 63.0 °F 52.0 °F 67% 30.00 in 10.0 mi WSW 8.1 mph - N/A   Clear
11:53 PM 62.1 °F 52.0 °F 70% 30.00 in 10.0 mi WSW 5.8 mph - N/A   Clear